This is the latest recevied weather packets stored in our database for station/object KD8FRE. If no packets are shown the sender has not sent any weather packets the latest 10 day(s).
| Time | Temp. | Humidity | Pressure | Rain* | Wind** | Luminosity | Snow |
|---|---|---|---|---|---|---|---|
| 1777918359 | 22.22° C | 30% | 1001.9 hPa | 0 mm | - | 648 W/m² | - |
| 1777918057 | 22.78° C | 28% | 1002.2 hPa | 0 mm | - | 417 W/m² | - |
| 1777917756 | 22.78° C | 31% | 1002 hPa | 0 mm | - | 686 W/m² | - |
| 1777917453 | 22.22° C | 29% | 1002.1 hPa | 0 mm | - | 105 W/m² | - |
| 1777917150 | 22.78° C | 28% | 1002.3 hPa | 0 mm | - | 583 W/m² | - |
| 1777916847 | 22.78° C | 29% | 1002 hPa | 0 mm | - | 693 W/m² | - |
| 1777916545 | 22.22° C | 28% | 1002.3 hPa | 0 mm | - | 630 W/m² | - |
| 1777916241 | 22.22° C | 29% | 1002.4 hPa | 0 mm | - | 429 W/m² | - |
| 1777915939 | 22.22° C | 30% | 1002.5 hPa | 0 mm | - | 690 W/m² | - |
| 1777915635 | 21.67° C | 30% | 1002.7 hPa | 0 mm | - | 743 W/m² | - |
| 1777915331 | 22.22° C | 28% | 1002.7 hPa | 0 mm | - | 645 W/m² | - |
| 1777915028 | 22.22° C | 30% | 1002.8 hPa | 0 mm | - | 565 W/m² | - |
| 1777914726 | 22.22° C | 29% | 1002.8 hPa | 0 mm | - | 675 W/m² | - |
| 1777914422 | 22.22° C | 29% | 1002.9 hPa | 0 mm | - | 539 W/m² | - |
| 1777914120 | 22.22° C | 33% | 1003 hPa | 0 mm | - | 676 W/m² | - |
| 1777913815 | 21.67° C | 31% | 1002.9 hPa | 0 mm | - | 664 W/m² | - |
| 1777913512 | 22.22° C | 33% | 1003.2 hPa | 0 mm | - | 678 W/m² | - |
| 1777913209 | 21.67° C | 34% | 1003.3 hPa | 0 mm | - | 736 W/m² | - |
| 1777912904 | 21.67° C | 34% | 1003.3 hPa | 0 mm | - | 734 W/m² | - |
| 1777912601 | 21.67° C | 34% | 1003.4 hPa | 0 mm | - | 664 W/m² | - |
| 1777912298 | 21.67° C | 35% | 1003.4 hPa | 0 mm | - | 629 W/m² | - |
| 1777911993 | 21.67° C | 36% | 1003.5 hPa | 0 mm | - | 381 W/m² | - |
| 1777911690 | 21.67° C | 36% | 1003.4 hPa | 0 mm | - | 314 W/m² | - |
| 1777911386 | 21.67° C | 37% | 1003.7 hPa | 0 mm | - | 423 W/m² | - |
| 1777911084 | 21.11° C | 38% | 1003.5 hPa | 0 mm | - | 204 W/m² | - |
* Rain latest hour (hover to see other rain measurements)
** Current wind speed in m/s (hover to see current wind gust speed)